Date String (YYYY-MM-DD hh:mm:ss) UTC,Instrument flags,Ambient pressure (hPa),Sample flow (lpm),Bypass flow (lpm),Sample temperature (°C),Ambient temperature (°C),ASC tube jacket temperature (°C),LED temperature (°C),Box temperature (°C),Sample RH (%),Span deviation,Mass concentration (μg/m³),Mass concentration (μg/m³),Mass concentration (μg/m³)
DateTimeUTC,F1_M11,P_M11,Q1_M11,Q2_M11,T1_M11,T2_M11,T3_M11,T4_M11,T5_M11,U1_M11,ZSPAN_M11,X2_M11,X0_M11,X1_M11
2023-05-20 06:00:00,,0838.4,5.01,0.00,28.3,26.7,00.0,36.7,29.9,27.3,0002.3,0104.19,0146.45,0097.75
2023-05-20 06:01:00,,0838.4,5.00,0.00,28.3,26.7,00.0,36.7,29.9,27.3,0002.3,0103.90,0145.97,0097.47
2023-05-20 06:02:00,,0838.4,5.00,0.00,28.3,26.7,00.0,36.7,29.9,27.3,0002.3,0103.53,0145.37,0097.15
2023-05-20 06:03:00,,0838.4,4.99,0.00,28.3,26.7,00.0,36.7,29.9,27.3,0002.3,0103.36,0145.44,0096.98
2023-05-20 06:04:00,,0838.4,4.99,0.00,28.3,26.7,00.0,36.7,29.9,27.3,0002.3,0103.04,0144.28,0096.68
2023-05-20 06:05:00,,0838.4,5.00,0.00,28.3,26.7,00.0,36.7,29.9,27.3,0002.4,0102.72,0143.67,0096.42
2023-05-20 06:06:00,,0838.4,5.00,0.00,28.3,26.7,00.0,36.7,29.9,27.2,0002.4,0102.43,0143.12,0096.16
2023-05-20 06:07:00,,0838.3,5.01,0.00,28.3,26.7,00.0,36.7,30.0,27.3,0002.4,0102.39,0143.29,0096.13
2023-05-20 06:08:00,,0838.3,5.00,0.00,28.3,26.7,00.0,36.7,29.9,27.2,0002.4,0102.14,0142.99,0096.02
2023-05-20 06:09:00,,0838.4,5.00,0.00,28.3,26.7,00.0,36.7,29.9,27.2,0002.5,0101.89,0142.48,0095.90
2023-05-20 06:10:00,,0838.3,5.01,0.00,28.4,26.7,00.0,36.7,30.0,27.1,0002.5,0101.90,0142.33,0095.93
2023-05-20 06:11:00,,0838.3,4.98,0.00,28.3,26.7,00.0,36.7,29.9,27.1,0002.4,0101.89,0141.91,0095.90
2023-05-20 06:12:00,,0838.4,5.00,0.00,28.3,26.7,00.0,36.7,29.9,27.1,0002.5,0102.03,0141.94,0096.04
2023-05-20 06:13:00,,0838.4,5.00,0.00,28.3,26.7,00.0,36.7,29.9,27.1,0002.5,0102.19,0141.82,0096.21
2023-05-20 06:14:00,,0838.4,5.00,0.00,28.3,26.7,00.0,36.7,29.9,27.1,0002.5,0102.30,0141.34,0096.32
2023-05-20 06:15:00,,0838.4,5.00,0.00,28.3,26.7,00.0,36.7,29.9,27.1,0002.5,0102.44,0141.76,0096.43
2023-05-20 06:16:00,,0838.4,5.00,0.00,28.3,26.7,00.0,36.7,30.0,27.1,0002.5,0102.63,0142.82,0096.55
2023-05-20 06:17:00,,0838.4,5.00,0.00,28.3,26.7,00.0,36.7,30.0,27.1,0002.5,0102.82,0143.29,0096.70
2023-05-20 06:18:00,,0838.4,5.00,0.00,28.4,26.7,00.0,36.7,29.9,27.1,0002.5,0102.76,0142.92,0096.71
2023-05-20 06:19:00,,0838.3,5.00,0.00,28.4,26.7,00.0,36.7,29.9,27.1,0002.5,0102.81,0142.68,0096.76
2023-05-20 06:20:00,,0838.3,5.00,0.00,28.3,26.7,00.0,36.7,29.9,27.1,0002.5,0102.89,0142.75,0096.83
2023-05-20 06:21:00,,0838.3,5.00,0.00,28.4,26.7,00.0,36.7,29.9,27.1,0002.5,0102.77,0142.37,0096.72
2023-05-20 06:22:00,,0838.3,5.00,0.00,28.3,26.7,00.0,36.7,29.9,27.1,0002.5,0102.82,0141.98,0096.78
2023-05-20 06:23:00,,0838.3,5.00,0.00,28.3,26.7,00.0,36.7,29.9,27.0,0002.4,0102.81,0141.88,0096.76
2023-05-20 06:24:00,,0838.3,5.00,0.00,28.3,26.7,00.0,36.7,29.9,27.0,0002.5,0102.83,0141.94,0096.74
2023-05-20 06:25:00,,0838.3,5.00,0.00,28.3,26.7,00.0,36.7,29.9,27.0,0002.5,0102.85,0142.03,0096.74
2023-05-20 06:26:00,,0838.3,5.00,0.00,28.3,26.7,00.0,36.7,29.9,27.0,0002.5,0102.91,0142.13,0096.74
2023-05-20 06:27:00,,0838.4,5.00,0.00,28.3,26.7,00.0,36.7,29.9,27.1,0002.5,0102.84,0141.73,0096.74
2023-05-20 06:28:00,,0838.4,5.00,0.00,28.3,26.7,00.0,36.7,29.9,27.1,0002.5,0102.68,0141.69,0096.62
2023-05-20 06:29:00,,0838.4,5.00,0.00,28.4,26.7,00.0,36.7,29.9,27.0,0002.5,0102.66,0141.54,0096.57
2023-05-20 06:30:00,,0838.4,5.01,0.00,28.3,26.7,00.0,36.7,29.9,27.0,0002.6,0102.72,0141.73,0096.57
2023-05-20 06:31:00,,0838.4,5.00,0.00,28.3,26.7,00.0,36.7,30.0,27.0,0002.5,0102.67,0142.23,0096.53
2023-05-20 06:32:00,,0838.4,5.00,0.00,28.3,26.7,00.0,36.7,29.9,27.1,0002.5,0102.77,0142.56,0096.58
2023-05-20 06:33:00,,0838.3,5.00,0.00,28.3,26.7,00.0,36.7,29.9,27.2,0002.6,0102.85,0142.87,0096.60
2023-05-20 06:34:00,,0838.4,5.00,0.00,28.3,26.7,00.0,36.7,29.9,27.3,0002.6,0102.66,0142.55,0096.48
2023-05-20 06:35:00,,0838.4,5.00,0.00,28.3,26.7,00.0,36.7,29.9,27.3,0002.6,0102.48,0142.35,0096.34
2023-05-20 06:36:00,,0838.4,5.00,0.00,28.3,26.7,00.0,36.7,29.9,27.2,0002.5,0102.35,0142.12,0096.24
2023-05-20 06:37:00,,0838.3,5.00,0.00,28.3,26.7,00.0,36.7,29.9,27.2,0002.5,0102.19,0141.83,0096.12
2023-05-20 06:38:00,,0838.3,4.99,0.00,28.3,26.7,00.0,36.7,29.9,27.2,0002.4,0102.15,0141.41,0096.06
2023-05-20 06:39:00,,0838.3,5.00,0.00,28.3,26.7,00.0,36.7,29.9,27.2,0002.4,0102.27,0141.41,0096.10
2023-05-20 06:40:00,,0838.3,5.00,0.00,28.3,26.7,00.0,36.7,29.9,27.2,0002.4,0102.20,0141.51,0096.03
2023-05-20 06:41:00,,0838.3,5.00,0.00,28.3,26.7,00.0,36.7,29.9,27.2,0002.4,0102.01,0141.10,0095.90
2023-05-20 06:42:00,,0838.3,5.01,0.00,28.3,26.7,00.0,36.7,29.9,27.2,0002.4,0101.90,0140.91,0095.78
2023-05-20 06:43:00,,0838.3,5.00,0.00,28.3,26.7,00.0,36.7,29.9,27.2,0002.5,0101.79,0141.30,0095.68
2023-05-20 06:44:00,,0838.3,5.00,0.00,28.3,26.7,00.0,36.7,29.9,27.2,0002.4,0101.59,0140.96,0095.49
2023-05-20 06:45:00,,0838.3,5.00,0.00,28.3,26.7,00.0,36.7,29.9,27.2,0002.4,0101.60,0140.96,0095.44
2023-05-20 06:46:00,,0838.3,4.98,0.00,28.3,26.6,00.0,36.7,29.9,27.2,0002.4,0101.53,0140.80,0095.30
2023-05-20 06:47:00,,0838.2,5.01,0.00,28.3,26.6,00.0,36.7,29.9,27.1,0002.4,0101.41,0140.65,0095.13
2023-05-20 06:48:00,,0838.3,5.00,0.00,28.3,26.6,00.0,36.7,29.9,27.1,0002.5,0101.27,0140.31,0095.04
2023-05-20 06:49:00,,0838.2,5.00,0.00,28.3,26.6,00.0,36.7,29.9,27.1,0002.5,0101.14,0140.25,0094.93
2023-05-20 06:50:00,,0838.3,5.00,0.00,28.3,26.6,00.0,36.7,29.9,27.1,0002.4,0100.86,0139.90,0094.78
2023-05-20 06:51:00,,0838.2,5.00,0.00,28.3,26.6,00.0,36.7,29.9,27.1,0002.5,0100.86,0139.74,0094.77
2023-05-20 06:52:00,,0838.2,4.99,0.00,28.3,26.6,00.0,36.7,29.9,27.0,0002.5,0100.95,0140.01,0094.80
2023-05-20 06:53:00,,0838.2,5.00,0.00,28.3,26.6,00.0,36.7,29.9,27.0,0002.5,0101.09,0140.12,0094.96
2023-05-20 06:54:00,,0838.2,5.00,0.00,28.3,26.6,00.0,36.6,29.9,27.0,0002.5,0101.08,0139.48,0095.03
2023-05-20 06:55:00,,0838.2,5.00,0.00,28.3,26.6,00.0,36.7,29.9,27.0,0002.6,0101.12,0139.37,0095.11
2023-05-20 06:56:00,,0838.2,4.99,0.00,28.3,26.6,00.0,36.7,29.9,26.9,0002.6,0101.14,0139.71,0095.16
2023-05-20 06:57:00,,0838.2,5.00,0.00,28.3,26.6,00.0,36.7,29.9,26.9,0002.6,0101.26,0140.25,0095.34
2023-05-20 06:58:00,,0838.1,5.00,0.00,28.3,26.7,00.0,36.6,29.9,26.9,0002.7,0101.44,0140.96,0095.60
2023-05-20 06:59:00,,0838.1,5.01,0.00,28.3,26.7,00.0,36.6,29.9,26.9,0002.8,0101.67,0141.60,0095.84
